Wind_Speed
64 65 66 68 69 70 71 73 74 75 75 74 75 76 78 76 75 77 76 76 74 70 68 66 66 62 63
68 70 70 71 72 73 74 76 76 77 75 77 77 80 80 81 82 83 85 83 79 73 70 70 69 67 67
72 72 73 74 76 77 78 79 78 78 78 80 81 83 84 85 87 92 92 90 82 71 70 70 72 73 72
75 75 77 78 80 81 82 81 81 79 82 81 85 87 87 89 91 95 98 90 75 69 70 73 73 75 77
78 79 81 82 83 84 84 82 85 84 84 86 88 90 92 92 96 97 93 79 74 77 72 80 78 80 80
82 83 85 86 87 87 87 87 85 87 87 87 90 93 94 95 97 93 81 75 76 76 79 81 82 81 85
86 87 88 90 89 88 87 86 87 89 90 91 94 95 95 95 90 83 75 71 72 74 78 81 85 88 85
90 89 90 89 91 88 88 88 90 92 93 95 98 95 95 91 84 80 76 72 72 73 75 77 80 80 81
92 91 91 92 90 91 90 92 92 95 98 98 95 96 96 88 82 80 75 72 72 73 76 80 81 83 86
93 93 93 93 94 91 94 94 96 98 99 96 97 97 92 83 80 78 75 72 72 75 76 79 80 83 85
95 97 96 96 95 96 96 97 98 97 96 97 96 94 86 81 79 78 76 73 73 75 78 82 84 85 86
99 99 99 98 97 99 99 99 98 97 99 99 95 86 81 80 79 79 78 78 78 78 79 80 81 83 86
103 101 102 101 102 103 103 103 102 102 101 98 87 82 81 81 81 80 80 81 82 84 86 87 87 89 93
106 106 105 106 107 107 106 105 105 105 98 90 85 84 85 84 84 85 85 85 86 88 89 90 91 94 98
110 110 111 111 110 109 108 108 105 96 90 88 89 89 88 89 89 89 89 90 91 93 95 97 98 100 104
114 115 115 113 113 112 109 102 95 92 91 91 92 94 95 95 97 96 95 95 97 99 101 103 105 105 109
118 117 116 116 111 108 101 96 95 95 95 97 97 99 101 101 101 101 100 102 104 104 106 108 111 112 115
Wind_Direction
281 284 288 290 295 299 302 304 308 310 311 311 312 312 313 311 310 309 307 307 305 300 294 292 289 290 293
282 285 288 291 294 297 300 303 306 308 308 309 309 311 310 310 309 308 308 306 304 299 293 291 291 292 290
282 286 289 291 294 296 299 303 305 305 306 306 308 309 309 308 307 307 308 307 303 295 290 288 289 289 292
282 285 287 289 293 295 299 301 303 302 303 305 306 308 308 306 306 307 305 303 298 292 289 287 287 289 292
282 284 286 289 292 295 298 300 301 301 301 304 306 307 307 306 305 304 302 296 288 285 288 287 289 290 293
281 283 286 290 291 294 297 299 299 299 300 303 304 305 305 305 305 303 299 293 288 285 284 284 289 292 291
280 283 287 287 291 294 296 296 296 297 301 302 303 304 304 306 305 302 299 293 291 289 287 288 289 291 293
280 283 285 288 290 293 293 294 295 298 299 301 302 303 305 304 303 304 302 295 292 290 290 290 292 292 292
280 283 285 287 290 290 291 293 295 297 299 301 301 303 304 304 302 301 300 297 295 295 292 291 290 290 292
280 283 285 286 288 290 291 294 295 297 298 300 301 303 304 302 302 301 300 296 294 293 290 292 293 295 295
281 282 285 288 288 290 291 293 295 296 296 298 301 302 301 300 300 300 300 298 296 294 293 293 293 292 292
282 284 285 287 288 289 291 293 293 294 294 297 298 297 297 298 298 299 298 297 296 295 294 293 295 299 300
282 284 284 286 288 289 290 292 292 293 295 296 294 295 296 296 297 297 296 296 298 299 300 302 301 298 296
281 282 284 285 287 289 290 291 291 293 293 292 292 294 295 297 297 298 298 299 299 297 296 294 295 296 296
281 282 284 286 286 287 288 290 291 291 290 291 293 295 298 298 297 297 297 297 296 295 295 295 295 296 296
280 282 283 284 285 287 289 289 290 291 291 293 294 296 297 297 296 296 295 294 294 294 294 293 293 295 296
280 281 283 284 287 287 288 289 289 291 292 293 294 294 295 293 293 293 292 291 293 294 294 294 295 295 295
Height
10676 10677 10674 10674 10670 10666 10663 10657 10653 10648 10641 10634 10628 10622 10616 10609 10603 10598 10591 10585 10579 10573 10568 10563 10559 10555 10551
10661 10660 10661 10658 10655 10652 10649 10645 10640 10634 10627 10620 10613 10607 10600 10592 10586 10580 10573 10568 10563 10556 10550 10546 10541 10538 10532
10647 10646 10644 10641 10639 10636 10634 10631 10626 10619 10612 10604 10598 10591 10584 10576 10568 10560 10553 10547 10542 10536 10531 10527 10523 10519 10516
10633 10632 10629 10626 10623 10619 10618 10614 10609 10602 10596 10590 10582 10575 10568 10560 10552 10543 10534 10528 10521 10517 10512 10508 10504 10502 10498
10618 10617 10612 10610 10608 10604 10600 10595 10590 10585 10579 10572 10566 10558 10549 10543 10534 10525 10515 10508 10502 10497 10494 10489 10487 10483 10480
10602 10600 10595 10594 10591 10588 10583 10578 10574 10565 10562 10556 10548 10540 10531 10522 10513 10503 10494 10487 10482 10479 10476 10472 10469 10465 10460
10586 10583 10580 10574 10573 10569 10564 10560 10555 10548 10543 10538 10530 10523 10513 10504 10494 10483 10476 10470 10466 10462 10458 10455 10450 10446 10439
10570 10565 10561 10558 10554 10551 10546 10542 10537 10529 10524 10520 10510 10504 10494 10485 10475 10466 10458 10453 10449 10445 10441 10436 10432 10425 10417
10548 10545 10542 10540 10536 10532 10527 10523 10517 10509 10503 10499 10489 10483 10474 10464 10457 10449 10441 10435 10431 10428 10424 10418 10412 10406 10398
10527 10525 10522 10519 10516 10513 10507 10504 10498 10490 10481 10475 10468 10461 10454 10446 10439 10431 10425 10419 10415 10411 10405 10399 10393 10386 10377
10505 10503 10501 10498 10494 10491 10487 10482 10476 10470 10462 10456 10449 10441 10434 10428 10421 10414 10408 10402 10396 10391 10386 10380 10374 10367 10357
10483 10481 10479 10476 10472 10467 10465 10461 10456 10451 10444 10438 10432 10424 10417 10411 10404 10398 10391 10384 10378 10373 10367 10361 10354 10345 10335
10461 10459 10457 10454 10451 10446 10442 10438 10433 10427 10421 10416 10410 10404 10399 10392 10386 10380 10373 10366 10358 10351 10344 10337 10333 10325 10316
10438 10436 10434 10431 10427 10424 10419 10414 10410 10405 10399 10393 10389 10383 10378 10372 10366 10358 10351 10344 10337 10332 10326 10319 10314 10305 10293
10413 10412 10410 10407 10404 10400 10396 10392 10387 10382 10376 10371 10365 10360 10355 10349 10343 10337 10331 10324 10317 10309 10302 10294 10289 10282 10270
10387 10385 10383 10380 10378 10374 10371 10366 10362 10357 10352 10348 10342 10337 10331 10325 10318 10313 10307 10300 10292 10285 10277 10268 10260 10258 10246
10362 10359 10356 10353 10350 10346 10343 10340 10337 10333 10329 10324 10319 10313 10307 10300 10294 10288 10282 10273 10266 10260 10251 10241 10233 10229 10220